FW6883 Weather Reports


Display with metric or nautical units.
time (UTC)temp
F
wind
direction
speed
MPH
gust
MPH
rain 1hr
in
rain 24hr
in
rain mn
in
humidity
%
barometer
mb
20210919050021 61 121 0.0 3.0 0.00 0.00 0.00 24 1004.2
20210919044524 62 121 1.0 6.0 0.00 0.00 0.00 24 1004.1
20210919043013 62 121 2.0 6.0 0.00 0.00 0.00 24 1004.1
20210919041511 61 121 0.0 4.0 0.00 0.00 0.00 24 1004.0
20210919040014 61 121 1.0 3.0 0.00 0.00 0.00 25 1003.9
20210919034515 62 121 0.0 1.0 0.00 0.00 0.00 25 1003.8
20210919033012 62 121 0.0 5.0 0.00 0.00 0.00 25 1003.6
20210919031522 62 121 0.0 1.0 0.00 0.00 0.00 25 1003.4
20210919030015 61 121 0.0 1.0 0.00 0.00 0.00 25 1003.4
20210919024508 61 121 0.0 1.0 0.00 0.00 0.00 25 1003.2
20210919023008 61 121 1.0 3.0 0.00 0.00 0.00 25 1003.3
20210919021507 59 121 0.0 1.0 0.00 0.00 0.00 24 1003.4
20210919020032 60 121 2.0 5.0 0.00 0.00 0.00 23 1003.2
20210919014520 61 121 1.0 4.0 0.00 0.00 0.00 22 1003.0
20210919013004 64 121 2.0 5.0 0.00 0.00 0.00 22 1003.0
20210919011506 65 121 1.0 8.0 0.00 0.00 0.00 22 1003.1
20210919003218 67 121 2.0 7.0 0.00 0.00 0.00 22 1003.4
20210919001633 67 121 3.0 8.0 0.00 0.00 0.00 21 1003.7
20210919000222 67 121 3.0 8.0 0.00 0.00 0.00 21 1003.5
20210918234739 66 121 2.0 9.0 0.00 0.00 0.00 21 1003.8
20210918233151 67 121 4.0 8.0 0.00 0.00 0.00 21 1003.8
20210918231604 68 121 3.0 9.0 0.00 0.00 0.00 22 1003.8
20210918230140 67 121 3.0 7.0 0.00 0.00 0.00 21 1003.8
20210918224644 67 121 5.0 9.0 0.00 0.00 0.00 22 1003.9
20210918223135 67 121 4.0 11.0 0.00 0.00 0.00 21 1004.1
20210918221700 67 121 3.0 8.0 0.00 0.00 0.00 21 1004.3
20210918220210 67 121 2.0 12.0 0.00 0.00 0.00 21 1004.4
20210918214632 67 121 6.0 14.0 0.00 0.00 0.00 21 1004.6
20210918213143 66 121 3.0 10.0 0.00 0.00 0.00 21 1004.6
20210918210127 67 121 5.0 11.0 0.00 0.00 0.00 21 1004.9
20210918204638 67 121 6.0 10.0 0.00 0.00 0.00 21 1005.1
20210918203205 67 121 3.0 10.0 0.00 0.00 0.00 21 1005.2
20210918200102 66 121 4.0 11.0 0.00 0.00 0.00 21 1005.3
20210918194633 66 121 5.0 12.0 0.00 0.00 0.00 21 1005.4
20210918193107 66 121 4.0 10.0 0.00 0.00 0.00 21 1005.7
20210918191604 66 121 5.0 12.0 0.00 0.00 0.00 22 1005.6
20210918190200 66 121 4.0 10.0 0.00 0.00 0.00 22 1005.4
20210918184642 66 121 6.0 10.0 0.00 0.00 0.00 23 1005.4
20210918183110 66 121 3.0 10.0 0.00 0.00 0.00 23 1005.4
20210918181638 67 121 4.0 12.0 0.00 0.00 0.00 23 1005.4
20210918180055 68 121 5.0 11.0 0.00 0.00 0.00 24 1005.3
20210918174630 66 121 1.0 11.0 0.00 0.00 0.00 24 1005.4
20210918173106 66 121 3.0 7.0 0.00 0.00 0.00 24 1005.2
20210918171619 66 121 3.0 9.0 0.00 0.00 0.00 24 1005.2
20210918170102 66 121 2.0 9.0 0.00 0.00 0.00 24 1005.2
20210918164549 65 121 1.0 7.0 0.00 0.00 0.00 25 1005.0
20210918163206 66 121 4.0 9.0 0.00 0.00 0.00 25 1004.9
20210918161600 66 121 2.0 9.0 0.00 0.00 0.00 25 1004.7
20210918160100 65 121 4.0 9.0 0.00 0.00 0.00 25 1004.7
20210918154607 65 121 4.0 10.0 0.00 0.00 0.00 25 1004.7
20210918153028 64 121 3.0 10.0 0.00 0.00 0.00 25 1004.7
20210918151544 64 121 1.0 7.0 0.00 0.00 0.00 25 1004.5
20210918150024 62 121 3.0 10.0 0.00 0.00 0.00 25 1004.3
20210918144600 63 121 3.0 5.0 0.00 0.00 0.00 26 1004.5
20210918143049 63 121 4.0 11.0 0.00 0.00 0.00 26 1004.1
20210918141521 61 121 1.0 4.0 0.00 0.00 0.00 26 1004.2
20210918140019 60 121 2.0 4.0 0.00 0.00 0.00 26 1003.9
20210918134522 60 121 2.0 6.0 0.00 0.00 0.00 26 1003.8
20210918133058 60 121 4.0 8.0 0.00 0.00 0.00 27 1003.6
20210918131516 60 121 2.0 6.0 0.00 0.00 0.00 27 1003.6
20210918130037 60 121 1.0 7.0 0.00 0.00 0.00 27 1003.5
20210918124514 60 121 0.0 7.0 0.00 0.00 0.00 27 1003.5
20210918123027 60 121 2.0 7.0 0.00 0.00 0.00 28 1003.4
20210918121540 60 121 5.0 8.0 0.00 0.00 0.00 28 1003.3
20210918120013 60 121 3.0 12.0 0.00 0.00 0.00 28 1003.2
20210918114512 60 121 4.0 7.0 0.00 0.00 0.00 28 1003.1
20210918113025 59 121 2.0 5.0 0.00 0.00 0.00 28 1003.2
20210918111515 58 121 3.0 6.0 0.00 0.00 0.00 28 1003.3
20210918110034 58 121 4.0 5.0 0.00 0.00 0.00 28 1003.2
20210918104508 58 121 3.0 5.0 0.00 0.00 0.00 28 1003.3
20210918103021 59 121 2.0 5.0 0.00 0.00 0.00 28 1003.3
20210918101505 59 121 4.0 6.0 0.00 0.00 0.00 28 1003.2
20210918100016 60 121 4.0 6.0 0.00 0.00 0.00 28 1003.4
20210918094702 61 121 4.0 12.0 0.00 0.00 0.00 28 1003.4
20210918093123 61 121 4.0 7.0 0.00 0.00 0.00 29 1003.6
20210918091620 61 121 5.0 8.0 0.00 0.00 0.00 29 1003.6
20210918090156 61 121 5.0 9.0 0.00 0.00 0.00 29 1003.5
20210918084621 61 121 5.0 8.0 0.00 0.00 0.00 29 1003.5
20210918083104 61 121 4.0 7.0 0.00 0.00 0.00 29 1003.5
20210918081628 61 121 5.0 10.0 0.00 0.00 0.00 30 1003.7
20210918080123 61 121 5.0 8.0 0.00 0.00 0.00 30 1003.6
20210918074623 61 121 4.0 8.0 0.00 0.00 0.00 30 1003.6
20210918073202 61 121 5.0 8.0 0.00 0.00 0.00 31 1003.8
20210918071636 62 121 5.0 7.0 0.00 0.00 0.00 31 1003.8
20210918070136 62 121 5.0 11.0 0.00 0.00 0.00 31 1003.9
20210918064628 61 121 5.0 10.0 0.00 0.00 0.00 31 1003.9
20210918063131 60 121 5.0 8.0 0.00 0.00 0.00 32 1003.9
20210918061641 60 121 5.0 10.0 0.00 0.00 0.00 32 1004.0
20210918060104 61 121 5.0 9.0 0.00 0.00 0.00 32 1003.9
20210918054539 61 121 5.0 11.0 0.00 0.00 0.00 32 1003.8
20210918053117 61 121 4.0 7.0 0.00 0.00 0.00 32 1003.8
20210918051612 62 121 5.0 11.0 0.00 0.00 0.00 32 1003.6
20210918050127 62 121 4.0 9.0 0.00 0.00 0.00 32 1003.6